Terminal Aerodrome Forecast
Issued by NWS Shreveport, LA

Home | Current Version | Previous Version | Text Only | Print | Product List | Glossary On
Versions: 1 2 3 4 5 6 7 8 9 10 11 12 13 14 15 16 17 18 19 20 21 22 23
000
FTUS44 KSHV 011803 RRA
TAFMLU
TAF
KMLU 011803Z 0118/0218 VRB05KT P6SM VCSH BKN030 BKN070
      TEMPO 0118/0120 6SM -TSRA BKN025CB BKN070
     FM012100 16005KT P6SM SCT035 BKN045
     FM020000 VRB04KT P6SM VCTS BKN035CB OVC100
     FM020600 VRB04KT P6SM VCSH BKN025 OVC045
     FM020900 VRB04KT 4SM BR VCSH BKN008 OVC020
     FM021500 26004KT 4SM -TSRA BR OVC015CB=

USA.gov is the U.S. government's official web portal to all federal, state and local government web resources and services.